When you browse on this site, cookies collect data to enhance your experience and personalize the content and advertising you see.
Visit our Privacy Policy to learn more. By continuing to use the site, you agree to this use of cookies and data.
  • In United Kingdom
  • List of Countries
  • For 7 days
  • Water Temperature
  • Satellite Maps
  • Weather Map
  • Weather Widgets
  • user-avatar
    Login

    Hourly Weather Pivneva Hora

    Today, 19 June, Wednesday

    Time Temperature Precipitation Wind Pressure Humidity
    00:00 +19°C° 0 mm 1 mps 744 mmHg 92%
    01:00 +19°C° 0 mm 1 mps 744 mmHg 93%
    02:00 +18°C° 0 mm 1 mps 744 mmHg 93%
    03:00 +18°C° 0 mm 1 mps 744 mmHg 93%
    04:00 +18°C° 0 mm 1 mps 744 mmHg 93%
    05:00 +18°C° 0 mm 1 mps 744 mmHg 93%
    06:00 +19°C° 0 mm 2 mps 744 mmHg 88%
    07:00 +21°C° 0 mm 2 mps 744 mmHg 83%
    08:00 +23°C° 0 mm 2 mps 744 mmHg 78%
    09:00 +24°C° 0.2 mm 2 mps 744 mmHg 75%
    10:00 +25°C° 0.2 mm 2 mps 744 mmHg 71%
    11:00 +26°C° 0.2 mm 2 mps 744 mmHg 68%
    12:00 +27°C° 1 mm 2 mps 743 mmHg 69%
    13:00 +27°C° 1 mm 3 mps 743 mmHg 71%
    14:00 +27°C° 1 mm 3 mps 743 mmHg 72%
    15:00 +27°C° 0.7 mm 3 mps 743 mmHg 74%
    16:00 +26°C° 0.7 mm 3 mps 742 mmHg 75%
    17:00 +26°C° 0.7 mm 3 mps 742 mmHg 77%
    18:00 +25°C° 0.5 mm 3 mps 742 mmHg 81%
    19:00 +24°C° 0.5 mm 3 mps 742 mmHg 86%
    20:00 +22°C° 0.5 mm 3 mps 742 mmHg 90%
    21:00 +21°C° 0.8 mm 3 mps 742 mmHg 91%
    22:00 +21°C° 0.8 mm 3 mps 742 mmHg 92%
    23:00 +20°C° 0.8 mm 3 mps 742 mmHg 93%

    Tomorrow, 20 June, Thursday

    Time Temperature Precipitation Wind Pressure Humidity
    00:00 +20°C° 0.1 mm 3 mps 742 mmHg 94%
    01:00 +20°C° 0.1 mm 3 mps 742 mmHg 94%
    02:00 +19°C° 0.1 mm 3 mps 742 mmHg 95%
    03:00 +19°C° 0.1 mm 3 mps 742 mmHg 95%
    04:00 +19°C° 0.1 mm 3 mps 741 mmHg 95%
    05:00 +19°C° 0.1 mm 3 mps 741 mmHg 95%
    06:00 +20°C° 0 mm 3 mps 742 mmHg 92%
    07:00 +22°C° 0 mm 3 mps 742 mmHg 88%
    08:00 +23°C° 0 mm 4 mps 742 mmHg 85%
    09:00 +25°C° 0.5 mm 4 mps 742 mmHg 81%
    10:00 +26°C° 0.5 mm 4 mps 742 mmHg 76%
    11:00 +28°C° 0.5 mm 4 mps 742 mmHg 72%
    12:00 +28°C° 2 mm 4 mps 741 mmHg 72%
    13:00 +28°C° 2 mm 4 mps 741 mmHg 72%
    14:00 +28°C° 2 mm 4 mps 741 mmHg 72%
    15:00 +28°C° 1.3 mm 3 mps 741 mmHg 75%
    16:00 +27°C° 1.3 mm 3 mps 741 mmHg 78%
    17:00 +26°C° 1.3 mm 3 mps 740 mmHg 82%
    18:00 +26°C° 0.3 mm 3 mps 740 mmHg 84%
    19:00 +25°C° 0.3 mm 3 mps 741 mmHg 85%
    20:00 +24°C° 0.3 mm 2 mps 741 mmHg 87%
    21:00 +24°C° 0.9 mm 3 mps 741 mmHg 89%
    22:00 +22°C° 0.9 mm 3 mps 741 mmHg 91%
    23:00 +21°C° 0.9 mm 3 mps 741 mmHg 92%

    Day after tomorrow, 21 June, Friday

    Time Temperature Precipitation Wind Pressure Humidity
    00:00 +21°C° 0 mm 3 mps 741 mmHg 93%
    01:00 +20°C° 0 mm 3 mps 741 mmHg 93%
    02:00 +20°C° 0 mm 2 mps 741 mmHg 94%
    03:00 +20°C° 0 mm 2 mps 741 mmHg 94%
    04:00 +20°C° 0 mm 2 mps 741 mmHg 94%
    05:00 +20°C° 0 mm 2 mps 741 mmHg 94%
    06:00 +21°C° 0 mm 2 mps 742 mmHg 90%
    07:00 +24°C° 0 mm 2 mps 742 mmHg 87%
    08:00 +25°C° 0 mm 3 mps 742 mmHg 83%
    09:00 +27°C° 0.2 mm 3 mps 742 mmHg 78%
    10:00 +28°C° 0.2 mm 3 mps 742 mmHg 73%
    11:00 +29°C° 0.2 mm 3 mps 742 mmHg 68%
    12:00 +29°C° 0.6 mm 3 mps 742 mmHg 67%
    13:00 +30°C° 0.6 mm 2 mps 742 mmHg 66%
    14:00 +30°C° 0.6 mm 2 mps 742 mmHg 65%
    15:00 +29°C° 1.5 mm 2 mps 742 mmHg 69%
    16:00 +29°C° 1.5 mm 2 mps 741 mmHg 72%
    17:00 +28°C° 1.5 mm 2 mps 741 mmHg 76%
    18:00 +27°C° 1.1 mm 2 mps 741 mmHg 80%
    19:00 +26°C° 1.1 mm 2 mps 741 mmHg 83%
    20:00 +24°C° 1.1 mm 2 mps 741 mmHg 87%
    21:00 +24°C° 0 mm 2 mps 741 mmHg 88%
    22:00 +23°C° 0 mm 2 mps 742 mmHg 90%
    23:00 +21°C° 0 mm 3 mps 742 mmHg 91%

    22 June, Saturday

    Time Temperature Precipitation Wind Pressure Humidity
    00:00 +21°C° 0 mm 2 mps 742 mmHg 92%
    01:00 +20°C° 0 mm 2 mps 742 mmHg 93%
    02:00 +20°C° 0 mm 2 mps 742 mmHg 94%
    03:00 +20°C° 0 mm 2 mps 742 mmHg 94%
    04:00 +20°C° 0 mm 2 mps 742 mmHg 94%
    05:00 +20°C° 0 mm 2 mps 742 mmHg 94%
    06:00 +23°C° 0.5 mm 2 mps 741 mmHg 90%
    07:00 +24°C° 0.5 mm 2 mps 741 mmHg 87%
    08:00 +25°C° 0.5 mm 2 mps 742 mmHg 84%
    09:00 +27°C° 1.4 mm 2 mps 742 mmHg 79%
    10:00 +28°C° 1.4 mm 2 mps 742 mmHg 75%
    11:00 +29°C° 1.4 mm 2 mps 741 mmHg 71%
    12:00 +28°C° 1 mm 2 mps 741 mmHg 73%
    13:00 +27°C° 1 mm 2 mps 741 mmHg 75%
    14:00 +27°C° 1 mm 2 mps 741 mmHg 77%
    15:00 +27°C° 0.4 mm 2 mps 741 mmHg 76%
    16:00 +28°C° 0.4 mm 2 mps 741 mmHg 75%
    17:00 +28°C° 0.4 mm 2 mps 741 mmHg 73%
    18:00 +27°C° 0.8 mm 2 mps 741 mmHg 77%
    19:00 +26°C° 0.8 mm 3 mps 741 mmHg 81%
    20:00 +24°C° 0.8 mm 3 mps 741 mmHg 85%
    21:00 +24°C° 0 mm 3 mps 741 mmHg 86%
    22:00 +22°C° 0 mm 3 mps 741 mmHg 88%
    23:00 +21°C° 0 mm 2 mps 741 mmHg 89%

    23 June, Sunday

    Time Temperature Precipitation Wind Pressure Humidity
    00:00 +21°C° 0 mm 2 mps 741 mmHg 90%
    01:00 +20°C° 0 mm 2 mps 741 mmHg 91%
    02:00 +20°C° 0 mm 2 mps 741 mmHg 91%
    03:00 +20°C° 0.1 mm 2 mps 741 mmHg 92%
    04:00 +20°C° 0.1 mm 2 mps 740 mmHg 92%
    05:00 +20°C° 0.1 mm 2 mps 740 mmHg 93%
    06:00 +21°C° 0.2 mm 3 mps 741 mmHg 90%
    07:00 +22°C° 0.2 mm 3 mps 741 mmHg 88%
    08:00 +23°C° 0.2 mm 4 mps 741 mmHg 86%
    09:00 +25°C° 0.1 mm 4 mps 741 mmHg 83%
    10:00 +26°C° 0.1 mm 4 mps 741 mmHg 79%
    11:00 +28°C° 0.1 mm 4 mps 741 mmHg 76%
    12:00 +28°C° 1.2 mm 4 mps 741 mmHg 75%
    13:00 +28°C° 1.2 mm 4 mps 741 mmHg 74%
    14:00 +28°C° 1.2 mm 4 mps 740 mmHg 73%
    15:00 +28°C° 0.4 mm 4 mps 740 mmHg 74%
    16:00 +27°C° 0.4 mm 4 mps 740 mmHg 75%
    17:00 +27°C° 0.4 mm 5 mps 740 mmHg 76%
    18:00 +26°C° 0.4 mm 4 mps 740 mmHg 79%
    19:00 +25°C° 0.4 mm 3 mps 740 mmHg 83%
    20:00 +24°C° 0.4 mm 2 mps 740 mmHg 86%
    21:00 +23°C° 0.3 mm 2 mps 740 mmHg 88%
    22:00 +21°C° 0.3 mm 2 mps 740 mmHg 90%
    23:00 +20°C° 0.3 mm 3 mps 740 mmHg 93%

    24 June, Monday

    Time Temperature Precipitation Wind Pressure Humidity
    00:00 +20°C° 0.3 mm 3 mps 741 mmHg 94%
    01:00 +19°C° 0.3 mm 4 mps 741 mmHg 95%
    02:00 +19°C° 0.3 mm 4 mps 741 mmHg 97%
    03:00 +18°C° 0.7 mm 4 mps 741 mmHg 97%
    04:00 +18°C° 0.7 mm 3 mps 741 mmHg 97%
    05:00 +18°C° 0.7 mm 3 mps 741 mmHg 97%
    06:00 +18°C° 0.1 mm 3 mps 741 mmHg 95%
    07:00 +18°C° 0.1 mm 3 mps 742 mmHg 94%
    08:00 +18°C° 0.1 mm 3 mps 742 mmHg 93%
    09:00 +19°C° 0 mm 3 mps 742 mmHg 91%
    10:00 +20°C° 0 mm 3 mps 742 mmHg 90%
    11:00 +20°C° 0 mm 3 mps 743 mmHg 88%
    12:00 +21°C° 0.1 mm 3 mps 743 mmHg 85%
    13:00 +22°C° 0.1 mm 3 mps 743 mmHg 83%
    14:00 +23°C° 0.1 mm 4 mps 743 mmHg 80%
    15:00 +22°C° 0.4 mm 4 mps 743 mmHg 83%
    16:00 +22°C° 0.4 mm 5 mps 743 mmHg 86%
    17:00 +21°C° 0.4 mm 6 mps 743 mmHg 88%
    18:00 +20°C° 0.1 mm 6 mps 744 mmHg 90%
    19:00 +19°C° 0.1 mm 5 mps 744 mmHg 92%
    20:00 +18°C° 0.1 mm 4 mps 744 mmHg 93%
    21:00 +18°C° 0 mm 4 mps 744 mmHg 93%
    22:00 +17°C° 0 mm 5 mps 745 mmHg 93%
    23:00 +17°C° 0 mm 5 mps 745 mmHg 93%
    Show more